| time (UTC) | temp F | wind direction | speed MPH | gust MPH | rain 1hr in | rain 24hr in | rain mn in | humidity % | barometer mb |
| 20260503054017 | 33 | 0 | 0.0 | 0.0 | 0.00 | 0.01 | 0.00 | 94 | 1013.3 |
| 20260503053515 | 33 | 0 | 0.0 | 0.0 | 0.00 | 0.01 | 0.00 | 94 | 1013.3 |
| 20260503053031 | 33 | 0 | 0.0 | 0.0 | 0.00 | 0.01 | 0.00 | 94 | 1013.2 |
| 20260503052516 | 33 | 0 | 0.0 | 0.0 | 0.00 | 0.01 | 0.00 | 94 | 1013.5 |
| 20260503052016 | 32 | 0 | 0.0 | 0.0 | 0.00 | 0.01 | 0.00 | 94 | 1013.5 |
| 20260503051531 | 32 | 0 | 0.0 | 0.0 | 0.00 | 0.01 | 0.00 | 94 | 1013.5 |
| 20260503051014 | 32 | 0 | 0.0 | 0.0 | 0.00 | 0.01 | 0.00 | 94 | 1013.6 |
| 20260503050516 | 32 | 0 | 0.0 | 0.0 | 0.00 | 0.01 | 0.00 | 93 | 1013.7 |
| 20260503050040 | 32 | 0 | 0.0 | 0.0 | 0.00 | 0.01 | 0.00 | 93 | 1013.7 |
| 20260503045519 | 32 | 0 | 0.0 | 0.0 | 0.00 | 0.04 | 0.00 | 93 | 1013.8 |
| 20260503045019 | 32 | 0 | 0.0 | 0.0 | 0.00 | 0.04 | 0.00 | 93 | 1013.8 |
| 20260503044538 | 32 | 0 | 0.0 | 0.0 | 0.00 | 0.04 | 0.00 | 93 | 1013.8 |
| 20260503044018 | 32 | 0 | 0.0 | 0.0 | 0.00 | 0.04 | 0.00 | 93 | 1013.9 |
| 20260503043518 | 32 | 0 | 0.0 | 0.0 | 0.00 | 0.04 | 0.00 | 93 | 1013.8 |
| 20260503043045 | 32 | 0 | 0.0 | 0.0 | 0.00 | 0.04 | 0.00 | 93 | 1013.9 |
| 20260503042518 | 32 | 0 | 0.0 | 0.0 | 0.00 | 0.04 | 0.00 | 93 | 1013.9 |
| 20260503042018 | 32 | 0 | 0.0 | 0.0 | 0.00 | 0.04 | 0.00 | 93 | 1014.1 |
| 20260503041535 | 32 | 0 | 0.0 | 0.0 | 0.00 | 0.04 | 0.00 | 93 | 1013.9 |
| 20260503041020 | 32 | 0 | 0.0 | 0.0 | 0.00 | 0.04 | 0.00 | 93 | 1014.0 |
| 20260503040519 | 31 | 0 | 0.0 | 0.0 | 0.00 | 0.04 | 0.00 | 93 | 1014.1 |
| 20260503040036 | 31 | 0 | 0.0 | 0.0 | 0.00 | 0.04 | 0.00 | 93 | 1014.0 |
| 20260503035524 | 31 | 0 | 0.0 | 0.0 | 0.00 | 0.06 | 0.04 | 93 | 1014.1 |
| 20260503035016 | 31 | 0 | 0.0 | 0.0 | 0.00 | 0.06 | 0.04 | 93 | 1014.1 |
| 20260503034530 | 31 | 0 | 0.0 | 0.0 | 0.00 | 0.06 | 0.04 | 92 | 1014.1 |
| 20260503034018 | 31 | 0 | 0.0 | 0.0 | 0.00 | 0.06 | 0.04 | 92 | 1014.2 |
| 20260503033518 | 31 | 0 | 0.0 | 0.0 | 0.00 | 0.06 | 0.04 | 92 | 1014.3 |
| 20260503033032 | 31 | 0 | 0.0 | 0.0 | 0.00 | 0.06 | 0.04 | 91 | 1014.2 |
| 20260503032518 | 31 | 0 | 0.0 | 0.0 | 0.00 | 0.06 | 0.04 | 92 | 1014.2 |
| 20260503032018 | 31 | 0 | 0.0 | 0.0 | 0.00 | 0.06 | 0.04 | 91 | 1014.1 |
| 20260503031532 | 31 | 0 | 0.0 | 0.0 | 0.00 | 0.06 | 0.04 | 91 | 1014.1 |
| 20260503031019 | 31 | 0 | 0.0 | 0.0 | 0.00 | 0.06 | 0.04 | 91 | 1014.0 |
| 20260503030518 | 31 | 0 | 0.0 | 0.0 | 0.00 | 0.06 | 0.04 | 91 | 1014.1 |
| 20260503030037 | 31 | 0 | 0.0 | 0.0 | 0.00 | 0.06 | 0.04 | 91 | 1014.1 |
| 20260503025518 | 31 | 0 | 0.0 | 0.0 | 0.00 | 0.08 | 0.04 | 90 | 1014.2 |
| 20260503025018 | 32 | 0 | 0.0 | 0.0 | 0.00 | 0.08 | 0.04 | 90 | 1014.0 |
| 20260503024537 | 32 | 0 | 0.0 | 0.0 | 0.00 | 0.08 | 0.04 | 90 | 1014.1 |
| 20260503024018 | 32 | 0 | 0.0 | 0.0 | 0.00 | 0.08 | 0.04 | 90 | 1014.1 |
| 20260503023518 | 32 | 0 | 0.0 | 0.0 | 0.00 | 0.08 | 0.04 | 90 | 1014.2 |
| 20260503023030 | 32 | 0 | 0.0 | 0.0 | 0.00 | 0.08 | 0.04 | 90 | 1014.1 |
| 20260503022518 | 32 | 0 | 0.0 | 0.0 | 0.00 | 0.08 | 0.04 | 90 | 1014.2 |
| 20260503022017 | 33 | 0 | 0.0 | 0.0 | 0.00 | 0.08 | 0.04 | 89 | 1014.3 |
| 20260503021532 | 33 | 0 | 0.0 | 0.0 | 0.00 | 0.08 | 0.04 | 89 | 1014.2 |
| 20260503021019 | 33 | 0 | 0.0 | 0.0 | 0.00 | 0.08 | 0.04 | 89 | 1014.2 |
| 20260503020519 | 33 | 0 | 0.0 | 0.0 | 0.00 | 0.08 | 0.04 | 89 | 1014.3 |
| 20260503020033 | 33 | 0 | 0.0 | 0.0 | 0.00 | 0.08 | 0.04 | 88 | 1014.3 |
| 20260503015521 | 33 | 0 | 0.0 | 0.0 | 0.00 | 0.12 | 0.04 | 87 | 1014.3 |
| 20260503015016 | 34 | 0 | 0.0 | 0.0 | 0.00 | 0.12 | 0.04 | 86 | 1014.1 |
| 20260503014531 | 34 | 0 | 0.0 | 0.0 | 0.00 | 0.12 | 0.04 | 87 | 1014.2 |
| 20260503014017 | 34 | 0 | 0.0 | 0.0 | 0.00 | 0.12 | 0.04 | 86 | 1014.1 |
| 20260503013514 | 35 | 0 | 0.0 | 0.0 | 0.01 | 0.12 | 0.04 | 85 | 1014.1 |
| 20260503013037 | 35 | 0 | 0.0 | 0.0 | 0.01 | 0.12 | 0.04 | 85 | 1014.1 |
| 20260503012514 | 35 | 0 | 0.0 | 0.0 | 0.01 | 0.12 | 0.04 | 84 | 1014.1 |
| 20260503012016 | 36 | 0 | 0.0 | 0.0 | 0.01 | 0.12 | 0.04 | 83 | 1014.0 |
| 20260503011528 | 37 | 0 | 0.0 | 0.0 | 0.01 | 0.12 | 0.04 | 83 | 1014.1 |
| 20260503011016 | 37 | 0 | 0.0 | 0.0 | 0.01 | 0.12 | 0.04 | 82 | 1014.0 |
| 20260503010516 | 37 | 0 | 0.0 | 0.0 | 0.01 | 0.12 | 0.04 | 81 | 1014.0 |
| 20260503010032 | 38 | 0 | 0.0 | 0.0 | 0.01 | 0.12 | 0.04 | 81 | 1013.9 |
| 20260503005517 | 38 | 0 | 0.0 | 0.0 | 0.01 | 0.15 | 0.04 | 80 | 1013.9 |
| 20260503005017 | 38 | 0 | 0.0 | 0.0 | 0.01 | 0.15 | 0.04 | 78 | 1013.8 |
| 20260503004535 | 38 | 0 | 0.0 | 0.0 | 0.01 | 0.15 | 0.04 | 77 | 1013.8 |
| 20260503004018 | 39 | 0 | 0.0 | 0.0 | 0.01 | 0.15 | 0.04 | 76 | 1013.8 |
| 20260503003515 | 39 | 0 | 0.0 | 0.0 | 0.00 | 0.14 | 0.03 | 75 | 1013.8 |
| 20260503003042 | 39 | 0 | 0.0 | 0.0 | 0.00 | 0.14 | 0.03 | 75 | 1013.9 |
| 20260503002515 | 40 | 0 | 0.0 | 0.0 | 0.00 | 0.14 | 0.03 | 74 | 1013.7 |
| 20260503002015 | 40 | 0 | 0.0 | 0.0 | 0.00 | 0.14 | 0.03 | 72 | 1013.7 |
| 20260503001541 | 41 | 0 | 0.0 | 0.0 | 0.00 | 0.14 | 0.03 | 72 | 1013.6 |
| 20260503001014 | 41 | 0 | 0.0 | 0.0 | 0.00 | 0.14 | 0.03 | 70 | 1013.6 |
| 20260503000518 | 42 | 0 | 0.0 | 0.0 | 0.00 | 0.14 | 0.03 | 71 | 1013.5 |
| 20260503000036 | 42 | 0 | 0.0 | 0.0 | 0.00 | 0.14 | 0.03 | 67 | 1013.5 |
| 20260502235515 | 42 | 0 | 0.0 | 0.0 | 0.00 | 0.15 | 0.03 | 67 | 1013.4 |
| 20260502235016 | 43 | 0 | 0.0 | 0.0 | 0.00 | 0.15 | 0.03 | 66 | 1013.5 |
| 20260502234540 | 43 | 0 | 0.0 | 0.0 | 0.00 | 0.15 | 0.03 | 66 | 1013.3 |
| 20260502234016 | 44 | 0 | 0.0 | 0.0 | 0.00 | 0.15 | 0.03 | 66 | 1013.3 |
| 20260502233515 | 44 | 0 | 0.0 | 0.0 | 0.00 | 0.15 | 0.03 | 62 | 1013.2 |
| 20260502233039 | 44 | 0 | 0.0 | 0.0 | 0.00 | 0.15 | 0.03 | 62 | 1013.3 |
| 20260502232517 | 44 | 0 | 0.0 | 0.0 | 0.00 | 0.15 | 0.03 | 63 | 1013.3 |
| 20260502232015 | 45 | 0 | 0.0 | 0.0 | 0.00 | 0.15 | 0.03 | 63 | 1013.3 |
| 20260502231529 | 45 | 0 | 0.0 | 0.0 | 0.00 | 0.15 | 0.03 | 60 | 1013.1 |
| 20260502231015 | 45 | 0 | 0.0 | 0.0 | 0.00 | 0.15 | 0.03 | 61 | 1013.2 |
| 20260502230515 | 45 | 0 | 0.0 | 0.0 | 0.00 | 0.15 | 0.03 | 60 | 1013.3 |
| 20260502230035 | 46 | 0 | 0.0 | 0.0 | 0.00 | 0.15 | 0.03 | 58 | 1013.3 |
| 20260502225515 | 46 | 0 | 0.0 | 0.0 | 0.00 | 0.15 | 0.03 | 59 | 1013.2 |
| 20260502225015 | 46 | 0 | 0.0 | 0.0 | 0.00 | 0.15 | 0.03 | 60 | 1013.2 |
| 20260502224542 | 46 | 0 | 0.0 | 0.0 | 0.00 | 0.15 | 0.03 | 59 | 1013.2 |
| 20260502224016 | 45 | 0 | 0.0 | 0.0 | 0.00 | 0.15 | 0.03 | 59 | 1013.2 |
| 20260502223516 | 45 | 0 | 0.0 | 0.0 | 0.00 | 0.15 | 0.03 | 58 | 1013.3 |
| 20260502223043 | 45 | 0 | 0.0 | 0.0 | 0.00 | 0.15 | 0.03 | 61 | 1013.2 |
| 20260502222515 | 45 | 0 | 0.0 | 0.0 | 0.00 | 0.15 | 0.03 | 62 | 1013.2 |
| 20260502222019 | 45 | 0 | 0.0 | 0.0 | 0.00 | 0.15 | 0.03 | 64 | 1013.1 |
| 20260502221539 | 46 | 0 | 0.0 | 0.0 | 0.00 | 0.15 | 0.03 | 66 | 1013.1 |
| 20260502221019 | 46 | 0 | 0.0 | 0.0 | 0.00 | 0.15 | 0.03 | 67 | 1013.1 |
| 20260502220518 | 46 | 0 | 0.0 | 0.0 | 0.00 | 0.15 | 0.03 | 63 | 1013.1 |
| 20260502220035 | 46 | 0 | 0.0 | 0.0 | 0.00 | 0.15 | 0.03 | 64 | 1013.2 |
| 20260502215518 | 45 | 0 | 0.0 | 0.0 | 0.00 | 0.15 | 0.03 | 65 | 1013.1 |
| 20260502215020 | 45 | 0 | 0.0 | 0.0 | 0.00 | 0.15 | 0.03 | 65 | 1013.1 |
| 20260502214544 | 45 | 0 | 0.0 | 0.0 | 0.00 | 0.15 | 0.03 | 66 | 1013.0 |
| 20260502214020 | 45 | 0 | 0.0 | 0.0 | 0.00 | 0.15 | 0.03 | 65 | 1013.0 |
| 20260502213518 | 45 | 0 | 0.0 | 0.0 | 0.00 | 0.15 | 0.03 | 65 | 1013.1 |
| 20260502213039 | 45 | 0 | 0.0 | 0.0 | 0.00 | 0.15 | 0.03 | 65 | 1013.1 |
| 20260502212518 | 45 | 0 | 0.0 | 0.0 | 0.00 | 0.15 | 0.03 | 65 | 1013.1 |
| 20260502212018 | 45 | 0 | 0.0 | 0.0 | 0.00 | 0.15 | 0.03 | 66 | 1013.0 |
| 20260502211538 | 45 | 0 | 0.0 | 0.0 | 0.00 | 0.15 | 0.03 | 66 | 1013.0 |
| 20260502211018 | 45 | 0 | 0.0 | 0.0 | 0.00 | 0.15 | 0.03 | 66 | 1013.0 |
| 20260502210519 | 45 | 0 | 0.0 | 0.0 | 0.00 | 0.15 | 0.03 | 67 | 1013.1 |
| 20260502210037 | 45 | 0 | 0.0 | 0.0 | 0.00 | 0.15 | 0.03 | 66 | 1013.1 |
| 20260502205518 | 45 | 0 | 0.0 | 0.0 | 0.00 | 0.15 | 0.03 | 67 | 1013.3 |
| 20260502205018 | 45 | 0 | 0.0 | 0.0 | 0.00 | 0.15 | 0.03 | 67 | 1013.1 |
| 20260502204533 | 46 | 0 | 0.0 | 0.0 | 0.00 | 0.15 | 0.03 | 68 | 1013.1 |
| 20260502204017 | 45 | 0 | 0.0 | 0.0 | 0.00 | 0.15 | 0.03 | 67 | 1013.1 |
| 20260502203521 | 45 | 0 | 0.0 | 0.0 | 0.00 | 0.15 | 0.03 | 68 | 1013.1 |
| 20260502203046 | 45 | 0 | 0.0 | 0.0 | 0.00 | 0.15 | 0.03 | 66 | 1013.1 |
| 20260502202521 | 45 | 0 | 0.0 | 0.0 | 0.00 | 0.15 | 0.03 | 67 | 1013.0 |
| 20260502202017 | 45 | 0 | 0.0 | 0.0 | 0.00 | 0.15 | 0.03 | 68 | 1013.0 |
| 20260502201530 | 45 | 0 | 0.0 | 0.0 | 0.00 | 0.15 | 0.03 | 67 | 1013.1 |
| 20260502201017 | 45 | 0 | 0.0 | 0.0 | 0.00 | 0.15 | 0.03 | 67 | 1013.2 |
| 20260502200521 | 45 | 0 | 0.0 | 0.0 | 0.00 | 0.15 | 0.03 | 66 | 1013.2 |
| 20260502200039 | 45 | 0 | 0.0 | 0.0 | 0.00 | 0.15 | 0.03 | 67 | 1013.2 |
| 20260502195519 | 45 | 0 | 0.0 | 0.0 | 0.00 | 0.15 | 0.03 | 65 | 1013.3 |
| 20260502195018 | 45 | 0 | 0.0 | 0.0 | 0.00 | 0.15 | 0.03 | 63 | 1013.2 |
| 20260502194534 | 45 | 0 | 0.0 | 0.0 | 0.00 | 0.15 | 0.03 | 62 | 1013.2 |
| 20260502194018 | 45 | 0 | 0.0 | 0.0 | 0.00 | 0.15 | 0.03 | 62 | 1013.2 |
| 20260502193518 | 46 | 0 | 0.0 | 0.0 | 0.00 | 0.15 | 0.03 | 62 | 1013.3 |
| 20260502193033 | 46 | 0 | 0.0 | 0.0 | 0.00 | 0.15 | 0.03 | 63 | 1013.4 |
| 20260502192518 | 46 | 0 | 0.0 | 0.0 | 0.00 | 0.15 | 0.03 | 61 | 1013.4 |
| 20260502192017 | 46 | 0 | 0.0 | 0.0 | 0.00 | 0.15 | 0.03 | 63 | 1013.3 |
| 20260502191542 | 46 | 0 | 0.0 | 0.0 | 0.00 | 0.15 | 0.03 | 63 | 1013.5 |
| 20260502191021 | 46 | 0 | 0.0 | 0.0 | 0.00 | 0.15 | 0.03 | 63 | 1013.6 |
| 20260502190518 | 46 | 0 | 0.0 | 0.0 | 0.00 | 0.15 | 0.03 | 63 | 1013.5 |
| 20260502190043 | 46 | 0 | 0.0 | 0.0 | 0.00 | 0.15 | 0.03 | 63 | 1013.4 |
| 20260502185519 | 46 | 0 | 0.0 | 0.0 | 0.00 | 0.15 | 0.03 | 62 | 1013.5 |
| 20260502185019 | 46 | 0 | 0.0 | 0.0 | 0.00 | 0.15 | 0.03 | 60 | 1013.6 |
| 20260502184540 | 46 | 0 | 0.0 | 0.0 | 0.00 | 0.15 | 0.03 | 61 | 1013.5 |
| 20260502184018 | 46 | 0 | 0.0 | 0.0 | 0.00 | 0.15 | 0.03 | 60 | 1013.6 |
| 20260502183517 | 46 | 0 | 0.0 | 0.0 | 0.00 | 0.15 | 0.03 | 63 | 1013.6 |
| 20260502183035 | 46 | 0 | 0.0 | 0.0 | 0.00 | 0.15 | 0.03 | 61 | 1013.5 |
| 20260502182518 | 46 | 0 | 0.0 | 0.0 | 0.00 | 0.15 | 0.03 | 61 | 1013.5 |
| 20260502182019 | 46 | 0 | 0.0 | 0.0 | 0.00 | 0.15 | 0.03 | 62 | 1013.5 |
| 20260502181537 | 46 | 0 | 0.0 | 0.0 | 0.00 | 0.15 | 0.03 | 61 | 1013.4 |
| 20260502181018 | 47 | 0 | 0.0 | 0.0 | 0.00 | 0.15 | 0.03 | 63 | 1013.3 |
| 20260502180518 | 46 | 0 | 0.0 | 0.0 | 0.00 | 0.15 | 0.03 | 63 | 1013.4 |
| 20260502170518 | 46 | 0 | 0.0 | 0.0 | 0.00 | 0.15 | 0.03 | 66 | 1013.4 |
| 20260502164017 | 46 | 0 | 0.0 | 0.0 | 0.00 | 0.15 | 0.03 | 63 | 1013.6 |
| 20260502163518 | 46 | 0 | 0.0 | 0.0 | 0.00 | 0.15 | 0.03 | 62 | 1013.6 |
| 20260502163042 | 47 | 0 | 0.0 | 0.0 | 0.00 | 0.15 | 0.03 | 62 | 1013.6 |
| 20260502162519 | 47 | 0 | 0.0 | 0.0 | 0.00 | 0.15 | 0.03 | 63 | 1013.6 |
| 20260502162018 | 46 | 0 | 0.0 | 0.0 | 0.00 | 0.15 | 0.03 | 66 | 1013.7 |
| 20260502161532 | 46 | 0 | 0.0 | 0.0 | 0.00 | 0.15 | 0.03 | 66 | 1013.6 |
| 20260502161018 | 46 | 0 | 0.0 | 0.0 | 0.00 | 0.15 | 0.03 | 66 | 1013.7 |
| 20260502160520 | 46 | 0 | 0.0 | 0.0 | 0.00 | 0.15 | 0.03 | 68 | 1013.7 |
| 20260502152017 | 45 | 0 | 0.0 | 0.0 | 0.00 | 0.15 | 0.03 | 63 | 1014.0 |
| 20260502151547 | 45 | 0 | 0.0 | 0.0 | 0.00 | 0.15 | 0.03 | 65 | 1014.0 |
| 20260502151020 | 45 | 0 | 0.0 | 0.0 | 0.00 | 0.15 | 0.03 | 64 | 1014.0 |
| 20260502150517 | 45 | 0 | 0.0 | 0.0 | 0.00 | 0.15 | 0.03 | 70 | 1013.9 |
| 20260502130518 | 42 | 0 | 0.0 | 0.0 | 0.00 | 0.15 | 0.03 | 83 | 1014.0 |
| 20260502123517 | 40 | 0 | 0.0 | 0.0 | 0.00 | 0.15 | 0.03 | 88 | 1014.2 |
| 20260502123038 | 40 | 0 | 0.0 | 0.0 | 0.00 | 0.15 | 0.03 | 88 | 1014.2 |
| 20260502122521 | 40 | 0 | 0.0 | 0.0 | 0.00 | 0.15 | 0.03 | 88 | 1014.2 |
| 20260502122017 | 41 | 0 | 0.0 | 0.0 | 0.00 | 0.15 | 0.03 | 89 | 1014.0 |
| 20260502121532 | 41 | 0 | 0.0 | 0.0 | 0.00 | 0.15 | 0.03 | 89 | 1013.9 |
| 20260502121019 | 41 | 0 | 0.0 | 0.0 | 0.00 | 0.15 | 0.03 | 89 | 1013.9 |
| 20260502120519 | 41 | 0 | 0.0 | 0.0 | 0.00 | 0.15 | 0.03 | 90 | 1013.9 |
| 20260502115518 | 41 | 0 | 0.0 | 0.0 | 0.00 | 0.15 | 0.03 | 93 | 1013.9 |
| 20260502115019 | 41 | 0 | 0.0 | 0.0 | 0.00 | 0.15 | 0.03 | 94 | 1013.9 |
| 20260502114534 | 41 | 0 | 0.0 | 0.0 | 0.00 | 0.15 | 0.03 | 94 | 1014.0 |
| 20260502114019 | 41 | 0 | 0.0 | 0.0 | 0.00 | 0.15 | 0.03 | 95 | 1013.9 |
| 20260502113521 | 41 | 0 | 0.0 | 0.0 | 0.00 | 0.15 | 0.03 | 95 | 1013.9 |
| 20260502113030 | 41 | 0 | 0.0 | 0.0 | 0.00 | 0.15 | 0.03 | 95 | 1013.9 |
| 20260502112515 | 40 | 0 | 0.0 | 0.0 | 0.00 | 0.15 | 0.03 | 95 | 1013.7 |
| 20260502112015 | 40 | 0 | 0.0 | 0.0 | 0.00 | 0.15 | 0.03 | 94 | 1013.7 |
| 20260502111533 | 40 | 0 | 0.0 | 0.0 | 0.00 | 0.15 | 0.03 | 94 | 1013.6 |
| 20260502111015 | 40 | 0 | 0.0 | 0.0 | 0.00 | 0.15 | 0.03 | 95 | 1013.5 |
| 20260502110515 | 40 | 0 | 0.0 | 0.0 | 0.00 | 0.15 | 0.03 | 95 | 1013.5 |
| 20260502110036 | 40 | 0 | 0.0 | 0.0 | 0.00 | 0.15 | 0.03 | 95 | 1013.5 |
| 20260502105522 | 40 | 0 | 0.0 | 0.0 | 0.00 | 0.15 | 0.03 | 95 | 1013.7 |
| 20260502105020 | 40 | 0 | 0.0 | 0.0 | 0.00 | 0.15 | 0.03 | 95 | 1013.5 |
| 20260502104537 | 40 | 0 | 0.0 | 0.0 | 0.00 | 0.15 | 0.03 | 96 | 1013.6 |
| 20260502104015 | 40 | 0 | 0.0 | 0.0 | 0.00 | 0.15 | 0.03 | 96 | 1013.5 |
| 20260502103518 | 40 | 0 | 0.0 | 0.0 | 0.00 | 0.15 | 0.03 | 96 | 1013.5 |
| 20260502103030 | 40 | 0 | 0.0 | 0.0 | 0.00 | 0.15 | 0.03 | 96 | 1013.4 |
| 20260502102520 | 40 | 0 | 0.0 | 0.0 | 0.00 | 0.15 | 0.03 | 96 | 1013.4 |
| 20260502102018 | 40 | 0 | 0.0 | 0.0 | 0.00 | 0.15 | 0.03 | 96 | 1013.4 |
| 20260502101532 | 40 | 0 | 0.0 | 0.0 | 0.00 | 0.15 | 0.03 | 96 | 1013.2 |
| 20260502101015 | 40 | 0 | 0.0 | 0.0 | 0.00 | 0.15 | 0.03 | 96 | 1013.2 |
| 20260502100515 | 40 | 0 | 0.0 | 0.0 | 0.00 | 0.15 | 0.03 | 96 | 1013.2 |
| 20260502091534 | 40 | 0 | 0.0 | 0.0 | 0.00 | 0.15 | 0.03 | 95 | 1012.7 |
| 20260502091017 | 40 | 0 | 0.0 | 0.0 | 0.00 | 0.15 | 0.03 | 95 | 1012.6 |
| 20260502090517 | 40 | 0 | 0.0 | 0.0 | 0.00 | 0.15 | 0.03 | 95 | 1012.6 |
| 20260502071015 | 39 | 0 | 0.0 | 0.0 | 0.00 | 0.15 | 0.03 | 95 | 1012.7 |
| 20260502070516 | 39 | 0 | 0.0 | 0.0 | 0.00 | 0.15 | 0.03 | 95 | 1012.7 |
| 20260502070039 | 39 | 0 | 0.0 | 0.0 | 0.00 | 0.15 | 0.03 | 95 | 1012.7 |
| 20260502065515 | 39 | 0 | 0.0 | 0.0 | 0.00 | 0.15 | 0.03 | 95 | 1012.7 |
| 20260502065017 | 39 | 0 | 0.0 | 0.0 | 0.00 | 0.15 | 0.03 | 94 | 1012.4 |
| 20260502064534 | 39 | 0 | 0.0 | 0.0 | 0.00 | 0.15 | 0.03 | 94 | 1011.9 |
| 20260502064021 | 39 | 0 | 0.0 | 0.0 | 0.00 | 0.15 | 0.03 | 94 | 1011.8 |
| 20260502063518 | 39 | 0 | 0.0 | 0.0 | 0.00 | 0.15 | 0.03 | 94 | 1012.0 |
| 20260502063033 | 39 | 0 | 0.0 | 0.0 | 0.00 | 0.15 | 0.03 | 94 | 1012.0 |
| 20260502062516 | 39 | 0 | 0.0 | 0.0 | 0.00 | 0.15 | 0.03 | 94 | 1012.0 |
| 20260502062017 | 39 | 0 | 0.0 | 0.0 | 0.00 | 0.15 | 0.03 | 94 | 1012.3 |
| 20260502061537 | 40 | 0 | 0.0 | 0.0 | 0.00 | 0.15 | 0.03 | 94 | 1012.2 |
| 20260502061017 | 40 | 0 | 0.0 | 0.0 | 0.00 | 0.15 | 0.03 | 94 | 1012.4 |
| 20260502060515 | 40 | 0 | 0.0 | 0.0 | 0.00 | 0.15 | 0.03 | 94 | 1012.4 |
| 20260502060032 | 40 | 0 | 0.0 | 0.0 | 0.00 | 0.15 | 0.03 | 94 | 1012.4 |
| 20260502055515 | 40 | 0 | 0.0 | 0.0 | 0.00 | 0.15 | 0.03 | 94 | 1012.5 |
| 20260502055015 | 40 | 0 | 0.0 | 0.0 | 0.00 | 0.15 | 0.03 | 94 | 1012.5 |
| 20260502054536 | 40 | 0 | 0.0 | 0.0 | 0.00 | 0.15 | 0.03 | 94 | 1012.6 |